TimeEDT,TemperatureF,Dew PointF,Humidity,Sea Level PressureIn,VisibilityMPH,Wind Direction,Wind SpeedMPH,Gust SpeedMPH,PrecipitationIn,Events,Conditions,WindDirDegrees,DateUTC
12:54 AM,64.9,59.0,81,29.99,10.0,South,8.1,-,N/A,,Clear,180,2012-10-15 04:54:00
1:54 AM,64.9,57.9,78,29.98,10.0,South,6.9,-,N/A,,Clear,180,2012-10-15 05:54:00
2:54 AM,66.0,57.9,75,29.96,10.0,South,9.2,-,N/A,,Overcast,190,2012-10-15 06:54:00
3:54 AM,66.9,57.9,73,29.92,10.0,SSW,8.1,-,N/A,,Mostly Cloudy,200,2012-10-15 07:54:00
4:54 AM,66.0,57.9,75,29.90,10.0,SSW,6.9,-,N/A,,Clear,200,2012-10-15 08:54:00
5:54 AM,64.9,57.9,78,29.90,10.0,SSW,8.1,-,N/A,,Clear,210,2012-10-15 09:54:00
6:54 AM,64.9,57.9,78,29.89,10.0,SSW,8.1,-,N/A,,Clear,200,2012-10-15 10:54:00
7:54 AM,66.0,59.0,78,29.88,10.0,SSW,8.1,-,N/A,,Clear,200,2012-10-15 11:54:00
8:54 AM,68.0,59.0,73,29.88,10.0,SSW,9.2,-,N/A,,Clear,200,2012-10-15 12:54:00
9:54 AM,71.1,60.1,68,29.87,10.0,SSW,12.7,-,N/A,,Clear,210,2012-10-15 13:54:00
10:54 AM,75.0,59.0,57,29.85,10.0,SW,12.7,18.4,N/A,,Scattered Clouds,220,2012-10-15 14:54:00
11:54 AM,79.0,59.0,50,29.81,10.0,SSW,11.5,21.9,N/A,,Clear,200,2012-10-15 15:54:00
12:54 PM,77.0,60.1,56,29.79,10.0,SW,11.5,25.3,N/A,,Clear,230,2012-10-15 16:54:00
1:54 PM,79.0,59.0,50,29.76,10.0,SW,16.1,23.0,N/A,,Mostly Cloudy,220,2012-10-15 17:54:00
2:54 PM,75.0,59.0,57,29.76,10.0,SW,12.7,24.2,N/A,,Overcast,230,2012-10-15 18:54:00
3:54 PM,69.1,59.0,70,29.72,10.0,WSW,3.5,-,0.00,,Overcast,250,2012-10-15 19:54:00
4:54 PM,68.0,59.0,73,29.73,10.0,SSW,5.8,-,0.00,,Overcast,210,2012-10-15 20:54:00
5:54 PM,66.0,61.0,84,29.72,10.0,SSW,6.9,-,0.01,,Overcast,210,2012-10-15 21:54:00
6:54 PM,64.9,61.0,87,29.70,9.0,SSW,4.6,-,0.01,Rain,Light Rain,210,2012-10-15 22:54:00
7:54 PM,64.9,61.0,87,29.73,5.0,SW,5.8,-,0.12,Rain,Light Rain,220,2012-10-15 23:54:00
8:09 PM,64.4,60.8,88,29.70,2.0,Calm,Calm,-,0.09,Rain,Rain,0,2012-10-16 00:09:00
8:17 PM,64.4,60.8,88,29.71,3.0,SSW,5.8,-,0.12,Rain,Rain,210,2012-10-16 00:17:00
8:26 PM,64.4,60.8,88,29.70,1.8,South,5.8,-,0.26,Rain,Heavy Rain,190,2012-10-16 00:26:00
8:36 PM,64.4,60.8,88,29.63,3.0,East,12.7,-,0.31,Rain,Light Rain,90,2012-10-16 00:36:00
8:38 PM,64.4,60.8,88,29.62,5.0,East,12.7,-,0.31,Rain,Light Rain,90,2012-10-16 00:38:00
8:54 PM,64.9,61.0,87,29.70,8.0,WSW,4.6,-,0.33,Rain,Light Rain,250,2012-10-16 00:54:00
9:04 PM,64.4,60.8,88,29.71,3.0,West,6.9,-,0.04,Rain,Light Rain,260,2012-10-16 01:04:00
9:16 PM,64.4,62.6,94,29.71,10.0,South,6.9,-,0.04,,Overcast,190,2012-10-16 01:16:00
9:47 PM,62.6,57.2,82,29.74,5.0,NNW,12.7,-,0.13,Rain,Rain,330,2012-10-16 01:47:00
9:54 PM,62.1,57.0,84,29.75,3.0,NNW,10.4,-,0.17,Rain,Heavy Rain,340,2012-10-16 01:54:00
10:54 PM,62.1,57.0,84,29.75,10.0,NW,3.5,-,0.01,,Overcast,320,2012-10-16 02:54:00
11:54 PM,61.0,55.9,83,29.76,10.0,West,3.5,-,N/A,,Overcast,280,2012-10-16 03:54:00